Regional Weather Roundup
Issued by NWS

Home | Current Version | Previous Version | Graphics & Text | Print | Product List | Glossary On
Versions: 1 2 3 4 5 6 7 8 9 10 11 12 13 14 15 16 17 18 19 20 21 22 23 24 25 26 27 28 29 30 31 32 33 34 35 36 37 38 39 40 41 42 43 44 45 46 47 48 49 50
000
ASUS43 KBIS 231410
RWRND

NORTH DAKOTA REGIONAL WEATHER ROUNDUP
NATIONAL WEATHER SERVICE BISMARCK ND
800 AM CST TUE JAN 23 2018

NOTE: "FAIR" INDICATES FEW OR NO CLOUDS BELOW 12,000 FEET WITH NO
SIGNIFICANT WEATHER AND/OR OBSTRUCTIONS TO VISIBILITY.


NDZ001>003-009>011-017-231500-
NORTHWEST NORTH DAKOTA

CITY           SKY/WX    TMP DP  RH WIND       PRES   REMARKS
WILLISTON      CLEAR     16  12  84 W8        30.06R WCI   5
MINOT          CLOUDY    20  16  84 W12       29.99R WCI   8
MINOT AFB      CLOUDY    17  15  90 W8        29.98R WCI   7
$$

NDZ018>021-031>035-040>046-231500-
SOUTHWEST NORTH DAKOTA

CITY           SKY/WX    TMP DP  RH WIND       PRES   REMARKS
BISMARCK       PTCLDY    12   8  84 CALM      30.05R
DICKINSON      CLOUDY    22  17  81 W12       30.01R WCI  10
GARRISON         N/A     19  17  92 W10       30.00R WCI   7
HETTINGER ARPT CLOUDY    24  19  81 NW8       30.05S WCI  15
$$

NDZ004>008-012>016-024-026-027-054-231500-
NORTHEAST NORTH DAKOTA

CITY           SKY/WX    TMP DP  RH WIND       PRES   REMARKS
GRAND FORKS    CLOUDY    21  17  84 CALM      30.07R
GRND FRKS AFB  CLOUDY    20  16  84 SW6       30.06S WCI  13
DEVILS LAKE    CLOUDY    20  18  92 SW10      30.01R FOG     WCI   9
$$

NDZ022-023-025-028>030-036>039-047>053-231500-
SOUTHEAST NORTH DAKOTA

CITY           SKY/WX    TMP DP  RH WIND       PRES   REMARKS
FARGO          CLOUDY    20  16  84 CALM      30.07S
JAMESTOWN      CLOUDY    19  19 100 SW5       30.01S FOG     WCI  12
$$





USA.gov is the U.S. government's official web portal to all federal, state and local government web resources and services.